Location: Cappy
(49.9254°N, 2.7577°E)
Time: 11:39:34
(UTC+00:00)

Daily predictions for brighter satellites

Satellite Brightness Start Highest point End
(mag) Time Altitude Azimuth Time Altitude Azimuth Time Altitude Azimuth
Cosmos 1980 3.9 16:20:06 10° SSW 16:25:48 79° WNW 16:31:32 10° NNE
NOAA 6 4.0 16:21:58 10° SSE 16:27:03 64° ENE 16:32:09 10° N
Okean O Rocket 2.3 16:23:14 10° SE 16:27:09 33° ENE 16:31:07 10° N
ISS -3.6 16:25:56 10° W 16:29:17 66° N 16:32:39 10° ENE
Cosmos 1633 Rocket 3.6 16:25:20 10° N 16:29:26 37° ENE 16:33:28 10° SE
H-2A R/B 2.8 16:27:38 10° SSE 16:31:30 87° ENE 16:35:26 10° NNW
Cosmos 1933 4.2 16:29:29 10° SSE 16:33:04 31° E 16:36:42 10° NNE
Meteor 2-12 Rocket 4.4 16:27:24 10° N 16:33:34 70° ENE 16:39:39 10° SSE
Spot 2 4.4 16:29:04 10° SSE 16:33:50 87° ENE 16:38:54 10° NNW
Nadezhda 1 Rocket 4.1 16:28:57 10° S 16:35:21 89° WNW 16:41:48 10° N
Cosmos 2218 Rocket 4.3 16:29:56 10° N 16:35:46 43° ENE 16:41:35 10° SE
Cosmos 2366 rocket 4.3 16:30:52 10° N 16:36:44 42° ENE 16:42:30 10° SE
Meteor 1-25 Rocket 4.4 16:32:07 10° N 16:37:38 51° ENE 16:43:09 10° SSE
ERS-2 4.1 16:36:27 10° ENE 16:37:56 12° E 16:39:25 10° ESE
Cosmos 1867 3.6 16:33:31 10° SSW 16:38:56 79° SE 16:44:25 10° NE
Envisat 3.0 16:38:11 10° SSE 16:43:17 86° ENE 16:48:24 10° NNW
Lacrosse 5 rocket 1.1 16:43:30 10° SW 16:47:08 66° SE 16:50:15 13° ENE
Cosmos 773 Rocket 4.5 16:44:12 10° S 16:49:07 42° ESE 16:54:06 10° NE
YAOGAN 6 2.5 16:48:41 10° SSE 16:52:18 87° ENE 16:55:55 10° NNW
Cosmos 2322 Rocket 4.4 16:50:28 10° NW 16:52:23 12° NNW 16:54:17 10° N
Cosmos 2297 4.0 16:47:31 10° NNW 16:53:13 75° WSW 16:58:55 10° SSE
Cosmos 1606 2.7 16:50:48 10° S 16:54:41 89° WNW 16:58:36 10° N
AQUARIUS 4.1 16:53:04 10° SSE 16:57:30 63° ENE 17:01:58 10° N
FengYun 1-2 T 4.3 16:52:13 10° SE 16:57:35 54° ENE 17:02:56 10° N
CZ-4B R/B 2.7 16:56:26 16° ENE 16:57:39 19° E 17:00:00 10° SE
Landsat 5 3.6 16:54:24 10° NNE 16:58:52 80° ESE 17:03:23 10° SSW
SL-16 R/B 2.2 16:53:22 10° SSW 16:58:59 71° ESE 17:04:39 10° NNE
BREEZE-M DEB (TANK) 3.2 17:00:07 10° SW 17:02:20 25° SSE 17:03:26 16° ESE
Cosmos 1500 4.3 17:01:52 10° NNE 17:04:56 22° ENE 17:08:00 10° ESE
SMAP 3.0 17:01:51 10° SSE 17:06:30 86° ENE 17:11:12 10° NNW
Sich 1 3.9 17:02:48 10° NNW 17:07:04 52° W 17:11:16 10° S
Cosmos 1656 Rocket 4.1 17:03:55 10° NNW 17:09:13 39° NE 17:14:26 10° ESE
CZ-4C R/B 3.4 17:06:17 10° N 17:09:56 69° WNW 17:13:31 10° SSW
YAOGAN 1 3.9 17:09:19 17° E 17:10:27 19° ENE 17:13:31 10° NNE
Cosmos 1470 Rocket 3.5 17:07:45 10° N 17:12:01 56° ENE 17:16:16 10° SSE
Cosmos 783 Rocket 4.5 17:06:52 10° SSW 17:12:10 85° ESE 17:17:28 10° NNE
Cosmos 1151 Rocket 2.9 17:08:54 10° S 17:13:08 66° E 17:17:22 10° NNE
CSL-04 DEB 4.5 17:10:26 10° NNE 17:14:34 60° ESE 17:18:45 10° S
Cosmos 864 Rocket 4.4 17:11:29 10° N 17:17:50 77° E 17:24:04 10° SSE
Cosmos 2263 4.3 17:12:39 10° NNW 17:18:11 54° NE 17:23:39 10° SE
SL-8 Rocket 4.1 17:14:46 10° N 17:21:03 82° W 17:27:20 10° S
Cosmos 1515 Rocket 3.9 17:17:03 10° SSE 17:21:10 42° E 17:25:08 11° NNE
CZ-2C R/B 3.6 17:18:08 10° SE 17:22:24 30° ENE 17:26:34 10° N
Cosmos 1238 Rocket 3.9 17:20:45 10° NNE 17:24:07 26° ENE 17:28:02 10° SE
COSMO-SKYMED 1 3.3 17:23:06 20° NE 17:25:18 32° E 17:29:12 10° SSE
TELKOM 3 2.9 17:22:59 10° W 17:25:46 90° E 17:26:18 49° E
X-37B 2.2 17:25:39 10° SW 17:28:19 25° SSE 17:29:28 20° SE
Cosmos 2333 Rocket 4.4 17:25:11 10° WNW 17:28:49 17° NNW 17:32:29 10° N
USA 281 3.5 17:23:23 10° ESE 17:29:32 44° NE 17:35:42 10° NNW
USA 81 4.2 17:25:22 10° N 17:30:40 80° W 17:35:57 10° S
Nadezhda 3 Rocket 4.5 17:25:00 10° SSE 17:30:44 37° E 17:36:30 10° NNE
Cosmos 2219 Rocket 4.3 17:27:07 10° WNW 17:30:47 17° NNW 17:34:27 10° N
Helios 1A Rocket 3.6 17:33:25 30° ENE 17:33:49 31° ENE 17:37:23 10° N
Cosmos 2228 Rocket 3.9 17:29:55 10° SSE 17:33:50 30° E 17:34:29 29° ENE
Meteor 1-4 Rocket 2.3 17:31:28 10° S 17:35:02 76° E 17:37:26 19° NNE
Cosmos 1821 Rocket 4.1 17:30:37 10° N 17:36:43 51° ENE 17:42:51 10° SSE
H-2A R/B 2.8 17:35:17 23° E 17:37:18 30° ENE 17:41:41 10° N
Cosmos 1812 3.9 17:34:20 10° SSE 17:36:35 24° ESE 17:36:35 24° ESE
USA 267 3.4 17:34:11 22° E 17:38:31 59° NNE 17:44:56 10° WNW
Meteor 1-11 Rocket 4.3 17:34:22 10° N 17:39:41 36° ENE 17:45:04 10° SE
Cosmos 1939 Rocket 2.7 17:35:50 10° SSE 17:39:41 69° ENE 17:43:38 10° N
NOSS 3-3 (A) 4.5 17:32:51 10° NW 17:40:05 65° NE 17:47:58 11° ESE
NOSS 3-3 (C) 4.5 17:32:55 10° NW 17:40:11 65° NE 17:47:58 11° ESE
Cosmos 1328 Rocket 3.7 17:36:45 10° SSW 17:41:04 75° WNW 17:45:27 10° N
Cosmos 44 Rocket 3.4 17:36:40 10° NW 17:41:47 59° NE 17:45:08 21° ESE
CZ-4 R/B 1.8 17:41:27 35° E 17:41:59 37° ENE 17:45:46 10° N
Cosmos 1933 Rocket 3.5 17:37:37 10° N 17:42:07 78° E 17:46:34 10° SSE
BREEZE-M DEB (TANK) 4.4 17:41:33 10° S 17:42:35 11° SSE 17:42:53 11° SSE
Cosmos 1602 4.2 17:40:47 10° NNW 17:44:40 63° W 17:48:31 10° S
CSL-04 Rocket 4.3 17:44:04 30° ENE 17:44:49 31° ENE 17:49:26 10° N
IRS-1C Rocket 4.0 17:40:52 10° SSE 17:46:06 70° ENE 17:51:23 10° NNW
Cosmos 2181 Rocket 4.4 17:42:47 10° SSW 17:49:08 68° WNW 17:55:29 10° N
SL-24 R/B 4.0 17:49:33 45° E 17:49:33 45° E 17:53:02 10° S
Cosmos 2237 Rocket 3.9 17:45:47 10° W 17:50:29 26° NW 17:55:14 10° NNE
Cosmos 1680 Rocket 4.3 17:46:02 10° SSE 17:50:18 30° ESE 17:50:18 30° ESE
CZ-4B R/B 4.4 17:46:19 10° S 17:51:19 42° W 17:56:21 10° NNW
Cosmos 1603 3.7 17:49:08 10° S 17:54:36 55° ESE 17:56:56 33° NE
CZ-2D R/B 3.1 17:52:44 10° SSE 17:56:33 74° ENE 18:00:24 10° N
H-2A R/B 3.4 17:53:13 10° N 17:57:07 37° WNW 18:01:03 10° SW
Cosmos 2369 Rocket 2.6 17:52:18 10° NNW 17:57:57 64° WSW 18:03:31 10° SSE
Cosmos 1943 3.3 17:52:30 10° S 17:57:59 52° ESE 17:59:58 36° ENE
Cosmos 1943 Rocket 3.5 17:53:54 10° NW 17:59:04 40° WSW 18:04:14 10° S
Cosmos 1538 Rocket 4.0 17:54:42 10° SSW 18:00:06 88° WNW 18:03:44 22° NNE
Meteor 1-5 Rocket 4.2 17:54:19 10° N 18:00:17 76° ENE 18:06:02 10° SSE
Cosmos 1371 Rocket 4.2 17:58:09 10° NNW 18:03:10 46° ENE 18:03:40 44° ENE
Cosmos 1782 3.4 17:59:34 10° SSW 18:03:29 58° WNW 18:06:45 14° N
Okean O Rocket 3.5 17:59:38 10° SSW 18:03:30 31° W 18:07:26 10° NNW
Okean-O 2.5 18:00:32 10° SSE 18:04:55 66° ENE 18:09:20 10° N
ISS -3.6 18:02:53 10° WNW 18:05:55 67° NW 18:05:55 67° NW
ARGOS 3.7 18:08:32 38° NE 18:08:32 38° NE 18:12:44 10° N
CENTAUR R/B 3.3 18:03:01 10° S 18:07:44 31° ESE 18:07:44 31° ESE
Cosmos 2056 Rocket 3.7 18:04:21 10° NNW 18:09:27 46° ENE 18:09:29 46° ENE
ERS-2 2.4 18:10:45 40° N 18:11:54 64° WNW 18:15:31 10° SSW
SKYMED 2 3.5 18:11:44 35° NNE 18:13:33 88° WNW 18:17:54 10° SSW
NOSS 3-2 (C) 4.2 18:11:11 10° S 18:15:09 31° SE 18:15:09 31° SE
Cosmos 1869 Rocket 3.4 18:12:21 10° N 18:16:52 75° E 18:17:48 54° SSE
BREEZE-M DEB (TANK) 4.0 18:12:57 10° SW 18:19:52 37° SSE 18:19:59 37° SSE
Cosmos 1624 Rocket 4.0 18:20:59 10° NNW 18:25:56 60° NE 18:25:56 60° NE
Lacrosse 5 rocket 2.4 18:23:05 10° W 18:25:53 32° NW 18:25:53 32° NW
Meteor 1-10 Rocket 4.0 18:21:06 10° S 18:26:43 77° E 18:28:50 40° NNE
BREEZE-M DEB (TANK) 4.4 18:25:49 10° W 18:26:37 22° W 18:26:37 22° W
Cosmos 371 Rocket 3.3 18:23:40 10° NNW 18:28:00 63° NNE 18:28:00 63° NNE
CZ-4B R/B 3.2 18:29:34 26° NW 18:29:55 27° WNW 18:32:37 10° SW
NOSS 3-2 (A) 3.2 18:35:29 10° SSW 18:41:10 71° SE 18:41:27 70° ESE
SL-16 R/B 3.9 18:38:52 10° W 18:43:39 27° NW 18:46:58 16° N
Cosmos 1535 Rocket 4.3 18:38:07 10° N 18:44:16 84° E 18:50:23 10° S
YAOGAN 1 3.1 18:46:28 57° W 18:46:28 57° W 18:50:27 10° NNW
USA 215 3.2 18:46:42 61° ESE 18:47:11 62° SE 18:53:39 10° SW
MOS 1 Rocket 3.6 18:52:44 72° NNW 18:53:11 79° WNW 18:58:34 10° SSW
USA 238 DEB 3.5 18:53:55 10° SW 19:00:32 82° SE 19:00:35 82° ESE
USA 238 3.5 18:54:01 10° SW 19:00:38 81° SE 19:00:39 81° SE
COSMO-SKYMED 1 4.2 19:00:20 28° NW 19:01:27 32° WNW 19:05:17 10° SW
Cosmos 158 Rocket 4.5 18:56:40 10° SW 19:00:45 53° WSW 19:00:45 53° WSW
CZ-2C R/B 4.1 18:57:33 10° SSW 19:02:12 40° W 19:06:44 10° NNW
X-37B 4.1 19:01:36 10° WSW 19:01:44 11° WSW 19:01:44 11° WSW
Cosmos 923 Rocket 4.5 19:00:24 10° SW 19:05:13 57° WNW 19:05:13 57° WNW
Cosmos 1934 Rocket 4.3 18:59:51 10° NNW 19:06:10 66° W 19:12:24 10° S
USA 281 4.0 19:07:41 10° S 19:13:59 49° WSW 19:20:22 10° NW
H-2A R/B 2.9 19:15:55 44° WSW 19:16:34 47° W 19:21:30 10° NNW
CZ-4 R/B 3.7 19:17:28 23° W 19:17:28 23° W 19:20:26 10° NW
USA 267 3.3 19:21:32 71° SW 19:21:32 71° SW 19:28:02 10° WNW
CENTAUR R/B 3.9 19:52:04 10° SW 19:54:58 31° WSW 19:54:58 31° WSW
